星链-30214 (STARLINK-30214 )

导读

STARLINK-30214是美国SpaceX星链互联网卫星星座的一员,于2023年7月20日发射升空,星链计划旨在为全球提供覆盖偏远地区、信号稳定的低轨卫星互联网服务,该卫星入轨后补充了星座网络容量,进一步推动星链完成全球组网部署,也助力美国商业航天产业发展。

Basic Information
目录编号:
57411
目录名称:
STARLINK-30214
国际标识:
2023-102H
轨道中心:
EARTH
卫星名称:
星链-30214
卫星全名:
星链-30214 (STARLINK-30214 )
卫星状态:
在轨 (已飞行1149 天)
发射日期:
2023-07-20 UTC
国别 :
美国 (US)
星等 :
--
This satellite is enrolled in the Space Conjunction Data Service (SCDS) and the current flight risk assessment level is: High Risk
Orbit Information
数据来源 国际轨道数据 AOE轨道数据
星历时间 2026-09-11T09:49:25+0800
15小时前
查看轨道信息
2026-09-06T06:00:00+0800
5天前
查看轨道信息
半长轴 6861.205km 6861.176km
偏心率 0.0001813 0.0001715
轨道倾角 43.003° 43.002°
近地点辐角 267.410° 282.657°
升交点赤经 281.519° 310.661°
平近点角 92.654° 111.587°
近地点 481.824km 481.862km
远地点 484.312km 484.216km
周期 94.267分钟 94.267分钟
每日圈数 15.275738 15.275835
Detailed Information
固有亮度:
5
最大亮度:
0.3
卫星平台:
Starlink v2.0 mini
覆盖范围:
全球
运营商:
太空探索技术公司
运营商所在国:
美国
制造商(研发单位):
太空探索技术公司
制造商所在国:
美国
使用方式:
暂无
Satellite Introduction
星链(Starlink)计划是由太空探索技术公司(SpaceX)提出的一个巨型低轨卫星互联网星座项目,计划在2019年至2024年间在太空搭建由约1.2万颗卫星组成的“星链”网络,其中1584颗将部署在地球上空550千米处的近地轨道,并从2020年开始工作。该卫星仍在工作。
2D Orbit Map
3D Orbit Map
Orbit Altitude Analysis Chart
Orbit Inclination Analysis Chart
Orbit Comprehensive Analysis Chart
View Comprehensive Chart
Miss Distance Evolution Trend with All Objects
Collision Probability Evolution Trend with All Objects